This is the latest recevied weather packets stored in our database for station/object IK0OZB-10. If no packets are shown the sender has not sent any weather packets the latest 10 day(s).
| Time | Temp. | Humidity | Pressure | Rain* | Wind** | Luminosity | Snow |
|---|---|---|---|---|---|---|---|
| 1777283856 | 20° C | 67% | 1019.9 hPa | - | - | - | - |
| 1777282955 | 20° C | 66% | 1020 hPa | - | - | - | - |
| 1777282055 | 20° C | 68% | 1020.1 hPa | - | - | - | - |
| 1777281155 | 20° C | 68% | 1020.2 hPa | - | - | - | - |
| 1777280255 | 20° C | 68% | 1020.3 hPa | - | - | - | - |
| 1777279355 | 19.44° C | 69% | 1020.3 hPa | - | - | - | - |
| 1777278455 | 19.44° C | 69% | 1020.3 hPa | - | - | - | - |
| 1777277555 | 19.44° C | 70% | 1020.3 hPa | - | - | - | - |
| 1777276654 | 18.89° C | 70% | 1020.3 hPa | - | - | - | - |
| 1777275754 | 18.89° C | 71% | 1020.3 hPa | - | - | - | - |
| 1777274854 | 18.89° C | 71% | 1020.2 hPa | - | - | - | - |
| 1777273954 | 18.33° C | 72% | 1020.2 hPa | - | - | - | - |
| 1777273054 | 17.78° C | 73% | 1020.1 hPa | - | - | - | - |
| 1777272154 | 17.78° C | 75% | 1020.1 hPa | - | - | - | - |
| 1777271254 | 17.22° C | 76% | 1020 hPa | - | - | - | - |
| 1777270354 | 16.67° C | 78% | 1020.1 hPa | - | - | - | - |
| 1777269453 | 16.67° C | 78% | 1020 hPa | - | - | - | - |
| 1777268553 | 16.67° C | 77% | 1020.1 hPa | - | - | - | - |
| 1777267653 | 16.11° C | 77% | 1020 hPa | - | - | - | - |
| 1777266753 | 16.11° C | 77% | 1019.9 hPa | - | - | - | - |
| 1777265853 | 16.67° C | 77% | 1019.7 hPa | - | - | - | - |
| 1777264953 | 16.67° C | 77% | 1019.7 hPa | - | - | - | - |
| 1777264053 | 16.67° C | 77% | 1019.6 hPa | - | - | - | - |
| 1777263152 | 16.67° C | 75% | 1019.5 hPa | - | - | - | - |
| 1777262252 | 16.67° C | 75% | 1019.4 hPa | - | - | - | - |
* Rain since midnight (hover to see other rain measurements)
** Current wind speed in m/s (hover to see current wind gust speed)